This demonstration page uses our WeatherBlox Daily Observations layout. Learn more.

Left ArrowRight Arrow

39.51506, -84.39828

Hourly Observations for April 2, 2016

Temp ( °F °C ) Dew Point ( °F °C ) Humidity (%) Winds ( mph kmh ) Pressure ( in mb ) Visibility ( mi km ) Precip ( " mm )
12:15 am 00:15 Clear 47 8.2 34 1.3 62 62 W 6 9 29.85 1011 10 16 N/A
12:35 am 00:35 Partly Cloudy 47 8.2 35 1.5 63 63 W 6 9 29.85 1011 10 16 N/A
12:55 am 00:55 Cloudy 49 9.6 35 1.8 59 59 WSW 6 9 29.85 1011 10 16 N/A
1:15 am 01:15 Cloudy 49 9.6 34 1.1 56 56 WSW 8 13 29.85 1011 10 16 N/A
1:35 am 01:35 Cloudy 49 9.6 34 1.3 57 57 WSW 8 13 29.85 1011 10 16 N/A
1:55 am 01:55 Partly Cloudy 49 9.6 36 2 59 59 WSW 8 13 29.85 1011 10 16 N/A
2:15 am 02:15 Clear 49 9.6 35 1.9 59 59 W 8 13 29.85 1011 10 16 N/A
2:40 am 02:40 Mostly Cloudy 49 9.3 34 1.3 58 58 WNW 16 26 29.85 1011 10 16 N/A
2:55 am 02:55 Cloudy 47 8.2 32 0.1 57 57 NW 10 17 29.85 1011 10 16 N/A
3:15 am 03:15 Cloudy 46 7.5 30 -1.3 54 54 NW 9 15 29.85 1011 10 16 N/A
3:35 am 03:35 Mostly Cloudy 44 6.5 30 -0.9 60 60 WNW 7 11 29.85 1011 10 16 N/A
3:55 am 03:55 Partly Cloudy 43 5.9 30 -1.2 61 61 WNW 6 9 29.85 1011 10 16 N/A
4:15 am 04:15 Mostly Cloudy 42 5.5 31 -0.7 65 65 W 7 11 29.83 1010 10 16 N/A
4:35 am 04:35 Partly Cloudy 42 5.5 31 -0.4 66 66 W 7 11 29.83 1010 10 16 N/A
4:55 am 04:55 Partly Cloudy 41 4.8 31 -0.5 69 69 W 6 9 29.83 1010 10 16 N/A
5:15 am 05:15 Clear 40 4.7 32 -0.2 71 71 W 6 9 29.83 1010 10 16 N/A
5:35 am 05:35 Clear 39 4 31 -0.5 73 73 WSW 5 7 29.83 1010 10 16 N/A
5:55 am 05:55 Clear 40 4.2 32 -0.1 74 74 W 6 9 29.83 1010 10 16 N/A
6:20 am 06:20 Clear 40 4.3 31 -0.8 70 70 WNW 6 9 29.85 1011 10 16 N/A
6:35 am 06:35 Clear 39 4 27 -2.7 62 62 WNW 7 11 29.85 1011 10 16 N/A
6:55 am 06:55 Clear 39 4 27 -2.6 62 62 W 5 7 29.85 1011 10 16 N/A
7:15 am 07:15 Clear 38 3.5 29 -1.8 69 69 SW 5 7 29.85 1011 10 16 N/A
7:35 am 07:35 Sunny 39 3.8 28 -2.4 64 64 WSW 5 7 29.85 1011 10 16 N/A
7:55 am 07:55 Sunny 37 2.6 28 -2.1 71 71 WSW 5 7 29.85 1011 10 16 N/A
8:15 am 08:15 Sunny 39 4 30 -1.1 70 70 WSW 5 7 29.85 1011 10 16 N/A
8:35 am 08:35 Sunny 40 4.7 29 -1.7 64 64 WSW 10 17 29.85 1011 10 16 N/A
8:55 am 08:55 Sunny 42 5.5 25 -3.8 52 52 W 13 20 29.85 1011 10 16 N/A
9:15 am 09:15 Sunny 42 5.5 22 -5.3 46 46 W 15 24 29.83 1010 10 16 N/A
9:35 am 09:35 Sunny 43 6.1 23 -5 45 45 WSW 16 26 29.83 1010 10 16 N/A
9:55 am 09:55 Sunny 43 6.3 22 -5.5 43 43 WSW 21 33 29.83 1010 10 16 N/A
10:15 am 10:15 Sunny 44 6.9 22 -5.4 42 42 WSW 21 33 29.80 1009 10 16 N/A
10:35 am 10:35 Sunny 47 8.2 24 -4.6 40 40 WSW 20 31 29.80 1009 10 16 N/A
10:55 am 10:55 Partly Cloudy 49 9.6 27 -3 41 41 WSW 20 31 29.80 1009 10 16 N/A
11:15 am 11:15 Partly Cloudy 49 9.6 25 -4 38 38 WSW 23 37 29.77 1008 10 16 N/A
11:35 am 11:35 Partly Cloudy 49 9.6 24 -4.6 37 37 WSW 23 37 29.77 1008 10 16 N/A
11:55 am 11:55 Partly Cloudy 49 9.6 25 -4.1 38 38 WSW 24 39 29.74 1007 10 16 N/A
12:15 pm 12:15 Mostly Cloudy 49 9.6 21 -5.9 33 33 WSW 26 43 29.74 1007 10 16 N/A
12:35 pm 12:35 Mostly Cloudy 50 10.1 24 -4.3 36 36 WSW 24 39 29.71 1006 10 16 N/A
12:55 pm 12:55 Cloudy 51 10.4 22 -5.3 33 33 WSW 17 28 29.71 1006 10 16 N/A
1:15 pm 13:15 Mostly Cloudy 51 10.6 23 -4.8 34 34 WSW 29 46 29.68 1005 10 16 N/A
1:35 pm 13:35 Mostly Cloudy 53 11.8 26 -3.6 34 34 WSW 24 39 29.62 1003 10 16 N/A
1:55 pm 13:55 Mostly Cloudy 55 12.5 27 -2.8 35 35 SW 21 33 29.59 1002 10 16 N/A
2:15 pm 14:15 Mostly Cloudy 55 12.5 26 -3.6 33 33 WSW 30 48 29.59 1002 10 16 N/A
2:35 pm 14:35 Mostly Cloudy 55 12.5 24 -4.4 31 31 WSW 30 48 29.56 1001 10 16 N/A
2:55 pm 14:55 Cloudy 53 11.5 25 -3.9 34 34 WSW 31 50 29.59 1002 10 16 N/A
3:15 pm 15:15 Cloudy with Drizzle 50 10.2 26 -3.5 38 38 W 33 54 29.59 1002 10 16 N/A
3:35 pm 15:35 Cloudy 52 11 25 -3.8 36 36 WSW 30 48 29.59 1002 10 16 N/A
3:55 pm 15:55 Cloudy 55 12.5 24 -4.6 30 30 W 35 56 29.56 1001 10 16 N/A
4:15 pm 16:15 Cloudy 51 10.5 24 -4.7 34 34 W 28 44 29.59 1002 10 16 N/A
4:35 pm 16:35 Mostly Cloudy 49 9.6 35 1.5 57 57 W 20 31 29.62 1003 10 16 N/A
4:50 pm 16:50 Cloudy 49 9.6 30 -1.2 47 47 W 21 33 29.62 1003 10 16 N/A

Powered by AerisWeather